• In Latvia
  • List of Countries
  • For 7 days
  • Water Temperature
  • Satellite Maps
  • Weather Map
  • Weather Widgets
  • user-avatar
    Login

    Hourly Weather Zapalow

    Today, 24 October, Wednesday

    Time Temperature Precipitation Wind Pressure Humidity
    00:00 +6°C° 0.8 mm 9 mps 731 mmHg 81%
    01:00 +6°C° 0.8 mm 9 mps 730 mmHg 83%
    02:00 +6°C° 0.8 mm 8 mps 729 mmHg 84%
    03:00 +6°C° 0.7 mm 8 mps 729 mmHg 83%
    04:00 +6°C° 0.7 mm 8 mps 728 mmHg 83%
    05:00 +6°C° 0.7 mm 7 mps 727 mmHg 82%
    06:00 +5°C° 0.7 mm 8 mps 728 mmHg 79%
    07:00 +5°C° 0.7 mm 8 mps 728 mmHg 77%
    08:00 +5°C° 0.7 mm 9 mps 728 mmHg 75%
    09:00 +5°C° 0.6 mm 9 mps 728 mmHg 74%
    10:00 +3°C° 0.6 mm 9 mps 729 mmHg 73%
    11:00 +3°C° 0.6 mm 9 mps 729 mmHg 72%
    12:00 +5°C° 0.2 mm 9 mps 730 mmHg 67%
    13:00 +5°C° 0.2 mm 10 mps 730 mmHg 62%
    14:00 +5°C° 0.2 mm 10 mps 731 mmHg 56%
    15:00 +5°C° 0.1 mm 9 mps 731 mmHg 57%
    16:00 +3°C° 0.1 mm 9 mps 732 mmHg 58%
    17:00 +4°C° 0.1 mm 8 mps 732 mmHg 59%
    18:00 +2°C° 0 mm 8 mps 733 mmHg 60%
    19:00 +2°C° 0 mm 8 mps 733 mmHg 61%
    20:00 +2°C° 0 mm 9 mps 734 mmHg 61%
    21:00 +2°C° 0 mm 8 mps 735 mmHg 62%
    22:00 +2°C° 0 mm 8 mps 735 mmHg 63%
    23:00 +2°C° 0 mm 8 mps 736 mmHg 64%

    Tomorrow, 25 October, Thursday

    Time Temperature Precipitation Wind Pressure Humidity
    00:00 +2°C° 0 mm 8 mps 736 mmHg 65%
    01:00 +1°C° 0 mm 8 mps 737 mmHg 67%
    02:00 +2°C° 0 mm 7 mps 737 mmHg 68%
    03:00 +2°C° 0 mm 7 mps 738 mmHg 70%
    04:00 +2°C° 0 mm 7 mps 738 mmHg 72%
    05:00 +1°C° 0 mm 6 mps 738 mmHg 73%
    06:00 +1°C° 0 mm 6 mps 738 mmHg 75%
    07:00 +1°C° 0 mm 6 mps 739 mmHg 76%
    08:00 +1°C° 0 mm 5 mps 739 mmHg 78%
    09:00 +2°C° 0 mm 6 mps 738 mmHg 74%
    10:00 +3°C° 0 mm 6 mps 738 mmHg 71%
    11:00 +4°C° 0 mm 6 mps 738 mmHg 68%
    12:00 +4°C° 0.9 mm 6 mps 737 mmHg 72%
    13:00 +3°C° 0.9 mm 7 mps 736 mmHg 76%
    14:00 +3°C° 0.9 mm 7 mps 735 mmHg 81%
    15:00 +4°C° 0.7 mm 7 mps 735 mmHg 83%
    16:00 +6°C° 0.7 mm 7 mps 734 mmHg 84%
    17:00 +7°C° 0.7 mm 8 mps 734 mmHg 86%
    18:00 +7°C° 0.7 mm 8 mps 734 mmHg 85%
    19:00 +7°C° 0.7 mm 8 mps 734 mmHg 84%
    20:00 +7°C° 0.7 mm 8 mps 734 mmHg 83%
    21:00 +8°C° 0.3 mm 7 mps 735 mmHg 83%
    22:00 +6°C° 0.3 mm 7 mps 735 mmHg 82%
    23:00 +5°C° 0.3 mm 6 mps 736 mmHg 81%

    Day after tomorrow, 26 October, Friday

    Time Temperature Precipitation Wind Pressure Humidity
    00:00 +5°C° 0 mm 6 mps 736 mmHg 82%
    01:00 +4°C° 0 mm 6 mps 737 mmHg 83%
    02:00 +5°C° 0 mm 5 mps 737 mmHg 84%
    03:00 +3°C° 0 mm 5 mps 737 mmHg 85%
    04:00 +3°C° 0 mm 5 mps 737 mmHg 86%
    05:00 +3°C° 0 mm 5 mps 737 mmHg 87%
    06:00 +3°C° 0 mm 5 mps 738 mmHg 87%
    07:00 +3°C° 0 mm 5 mps 738 mmHg 86%
    08:00 +3°C° 0 mm 5 mps 738 mmHg 86%
    09:00 +5°C° 0 mm 5 mps 738 mmHg 81%
    10:00 +7°C° 0 mm 5 mps 739 mmHg 75%
    11:00 +8°C° 0 mm 6 mps 739 mmHg 70%
    12:00 +8°C° 0 mm 5 mps 738 mmHg 68%
    13:00 +9°C° 0 mm 5 mps 738 mmHg 66%
    14:00 +9°C° 0 mm 5 mps 738 mmHg 65%
    15:00 +10°C° 0 mm 4 mps 738 mmHg 69%
    16:00 +10°C° 0 mm 3 mps 737 mmHg 74%
    17:00 +9°C° 0 mm 3 mps 737 mmHg 78%
    18:00 +9°C° 0 mm 3 mps 737 mmHg 79%
    19:00 +8°C° 0 mm 4 mps 737 mmHg 80%
    20:00 +8°C° 0 mm 5 mps 736 mmHg 81%
    21:00 +8°C° 0 mm 5 mps 736 mmHg 81%
    22:00 +8°C° 0 mm 5 mps 736 mmHg 81%
    23:00 +9°C° 0 mm 6 mps 735 mmHg 81%

    27 October, Saturday

    Time Temperature Precipitation Wind Pressure Humidity
    00:00 +9°C° 0 mm 6 mps 735 mmHg 80%
    01:00 +9°C° 0 mm 6 mps 735 mmHg 79%
    02:00 +10°C° 0 mm 6 mps 735 mmHg 79%
    03:00 +9°C° 0 mm 6 mps 735 mmHg 80%
    04:00 +9°C° 0 mm 5 mps 735 mmHg 81%
    05:00 +9°C° 0 mm 5 mps 735 mmHg 82%
    06:00 +8°C° 0 mm 5 mps 735 mmHg 81%
    07:00 +8°C° 0 mm 5 mps 736 mmHg 79%
    08:00 +8°C° 0 mm 5 mps 736 mmHg 78%
    09:00 +8°C° 0 mm 5 mps 737 mmHg 73%
    10:00 +8°C° 0 mm 5 mps 737 mmHg 68%
    11:00 +8°C° 0 mm 6 mps 738 mmHg 63%
    12:00 +8°C° 0 mm 5 mps 738 mmHg 61%
    13:00 +8°C° 0 mm 5 mps 738 mmHg 58%
    14:00 +10°C° 0 mm 4 mps 738 mmHg 56%
    15:00 +8°C° 0 mm 4 mps 739 mmHg 58%
    16:00 +9°C° 0 mm 3 mps 739 mmHg 60%
    17:00 +8°C° 0 mm 2 mps 739 mmHg 62%
    18:00 +8°C° 0 mm 2 mps 739 mmHg 64%
    19:00 +8°C° 0 mm 1 mps 740 mmHg 65%
    20:00 +8°C° 0 mm 1 mps 740 mmHg 67%
    21:00 +8°C° 0.1 mm 1 mps 741 mmHg 69%
    22:00 +7°C° 0.1 mm 1 mps 741 mmHg 71%
    23:00 +6°C° 0.1 mm 0 mps 741 mmHg 73%

    28 October, Sunday

    Time Temperature Precipitation Wind Pressure Humidity
    00:00 +7°C° 0.4 mm 1 mps 741 mmHg 75%
    01:00 +7°C° 0.4 mm 1 mps 741 mmHg 77%
    02:00 +7°C° 0.4 mm 1 mps 742 mmHg 80%
    03:00 +5°C° 0.8 mm 2 mps 742 mmHg 82%
    04:00 +5°C° 0.8 mm 2 mps 742 mmHg 84%
    05:00 +5°C° 0.8 mm 2 mps 742 mmHg 86%
    06:00 +4°C° 0.7 mm 3 mps 742 mmHg 86%
    07:00 +4°C° 0.7 mm 3 mps 742 mmHg 86%
    08:00 +4°C° 0.7 mm 3 mps 742 mmHg 87%
    09:00 +4°C° 0.7 mm 4 mps 742 mmHg 86%
    10:00 +4°C° 0.7 mm 4 mps 742 mmHg 85%
    11:00 +5°C° 0.7 mm 5 mps 742 mmHg 84%
    12:00 +5°C° 0.7 mm 5 mps 742 mmHg 85%
    13:00 +5°C° 0.7 mm 5 mps 742 mmHg 86%
    14:00 +5°C° 0.7 mm 5 mps 741 mmHg 87%
    15:00 +5°C° 1.7 mm 5 mps 741 mmHg 89%
    16:00 +5°C° 1.7 mm 5 mps 741 mmHg 91%
    17:00 +5°C° 1.7 mm 5 mps 741 mmHg 92%
    18:00 +5°C° 1.7 mm 5 mps 740 mmHg 93%
    19:00 +5°C° 1.7 mm 5 mps 740 mmHg 93%
    20:00 +5°C° 1.7 mm 4 mps 740 mmHg 93%
    21:00 +6°C° 0.6 mm 4 mps 740 mmHg 94%
    22:00 +6°C° 0.6 mm 4 mps 740 mmHg 94%
    23:00 +6°C° 0.6 mm 4 mps 740 mmHg 94%

    29 October, Monday

    Time Temperature Precipitation Wind Pressure Humidity
    00:00 +6°C° 0 mm 4 mps 739 mmHg 94%
    01:00 +7°C° 0 mm 3 mps 739 mmHg 95%
    02:00 +7°C° 0 mm 3 mps 739 mmHg 95%
    03:00 +8°C° 0 mm 3 mps 738 mmHg 94%
    04:00 +8°C° 0 mm 3 mps 738 mmHg 93%
    05:00 +8°C° 0 mm 3 mps 737 mmHg 92%
    06:00 +9°C° 0 mm 3 mps 737 mmHg 89%
    07:00 +9°C° 0 mm 3 mps 737 mmHg 87%
    08:00 +10°C° 0 mm 4 mps 737 mmHg 85%
    09:00 +12°C° 0 mm 4 mps 736 mmHg 80%
    10:00 +13°C° 0 mm 4 mps 736 mmHg 74%
    11:00 +15°C° 0 mm 4 mps 736 mmHg 68%
    12:00 +17°C° 0 mm 4 mps 736 mmHg 66%
    13:00 +18°C° 0 mm 4 mps 735 mmHg 64%
    14:00 +19°C° 0 mm 4 mps 735 mmHg 62%
    15:00 +18°C° 0 mm 4 mps 735 mmHg 66%
    16:00 +17°C° 0 mm 4 mps 735 mmHg 71%
    17:00 +15°C° 0 mm 4 mps 735 mmHg 75%
    18:00 +15°C° 0.1 mm 4 mps 735 mmHg 77%
    19:00 +14°C° 0.1 mm 4 mps 735 mmHg 79%
    20:00 +14°C° 0.1 mm 4 mps 735 mmHg 81%
    21:00 +14°C° 0 mm 4 mps 735 mmHg 82%
    22:00 +14°C° 0 mm 4 mps 735 mmHg 83%
    23:00 +13°C° 0 mm 4 mps 736 mmHg 84%

    30 October, Tuesday

    Time Temperature Precipitation Wind Pressure Humidity
    00:00 +13°C° 0 mm 4 mps 736 mmHg 85%
    01:00 +13°C° 0 mm 3 mps 736 mmHg 85%
    02:00 +13°C° 0 mm 3 mps 736 mmHg 85%
    03:00 +13°C° 0 mm 3 mps 736 mmHg 86%
    04:00 +12°C° 0 mm 3 mps 736 mmHg 86%
    05:00 +12°C° 0 mm 3 mps 736 mmHg 86%
    06:00 +12°C° 0 mm 3 mps 736 mmHg 85%
    07:00 +12°C° 0 mm 3 mps 736 mmHg 84%
    08:00 +13°C° 0 mm 4 mps 736 mmHg 83%
    09:00 +14°C° 0 mm 4 mps 736 mmHg 77%
    10:00 +17°C° 0 mm 4 mps 736 mmHg 71%
    11:00 +19°C° 0 mm 4 mps 736 mmHg 65%
    12:00 +19°C° 0 mm 4 mps 736 mmHg 65%
    13:00 +19°C° 0 mm 4 mps 736 mmHg 66%
    14:00 +19°C° 0 mm 4 mps 735 mmHg 66%
    15:00 +18°C° 0.1 mm 4 mps 735 mmHg 69%
    16:00 +17°C° 0.1 mm 3 mps 735 mmHg 72%
    17:00 +17°C° 0.1 mm 3 mps 734 mmHg 75%
    18:00 +16°C° 0.1 mm 3 mps 734 mmHg 77%
    19:00 +16°C° 0.1 mm 3 mps 733 mmHg 79%
    20:00 +14°C° 0.1 mm 3 mps 733 mmHg 80%
    21:00 +14°C° 0.2 mm 3 mps 733 mmHg 81%
    22:00 +14°C° 0.2 mm 3 mps 732 mmHg 82%
    23:00 +14°C° 0.2 mm 3 mps 732 mmHg 83%
    Show more